www.pogodaiklimat.ru

Погода и климат >> Архив погоды >> Норвегия >> Myken


ПОГОДА в Myken

  • Прогноз погоды в Myken
  • Монитор погоды в Myken
  • Климат города

АРХИВ ПОГОДЫ в Myken

Время (UTC), дата Ветер
(напр.,м/с)
 
Видим.   Явления Облачность Т
(С)
Тd
(С)
f
(%)
Тe
(С)
Тes
(С)
Комфортность P
(гПа)
Po
(гПа)
Тmin
(С)
Tmax
(С)
R
(мм)
R24
(мм)
S
(см)
17 18.05 ЮЗ 5-7
{8}
н/о н/о +8.0 +5.0 81 +4 +4 1021.4 1019.3
16 18.05 ЮЗ 6-8
{9}
н/о н/о +8.1 +3.8 74 +4 +4 1021.8 1019.7
18 18.05 ЮЗ 7-10
{13}
30 км 10/0
[Ac As]
+7.8 +3.7 75 +3 +4 1021.0 1018.9 +7.4 +8.6
19 18.05 ЮЗ 6-8
{10}
н/о н/о +7.3 +3.7 78 +3 +3 1020.7 1018.6
20 18.05 Ю 7-9
{10}
н/о н/о +7.3 +4.3 81 +3 +3 1020.3 1018.2
21 18.05 Ю 7-9
{10}
30 км 6/1 300 м
[Cu Sc Ac As Ci fib]
+7.1 +4.6 84 +2 +2 1019.8 1017.7
23 18.05 Ю 8-10
{10}
н/о н/о +7.4 +5.2 86 +2 +2 1018.5 1016.4
22 18.05 Ю 8-10
{10}
н/о н/о +7.2 +5.0 86 +2 +2 1019.2 1017.1
00 19.05 Ю 7-10
{10}
н/о н/о +7.6 +4.7 82 +3 +3 1018.1 1016.0
01 19.05 Ю 8-11
{11}
н/о н/о +7.7 +5.2 84 +3 +3 1017.6 1015.5
02 19.05 Ю 9-11
{12}
н/о н/о +7.6 +5.4 86 +2 +2 1017.3 1015.2
03 19.05 Ю 10-12
{13}
н/о н/о +7.8 +5.4 85 +2 +2 1016.9 1014.8
05 19.05 Ю 11 н/о н/о +8.0 +6.1 88 +2 +2 1016.4 1014.3
04 19.05 Ю 11 н/о н/о +7.9 +5.9 87 +2 +2 1016.6 1014.5
06 19.05 Ю 10
{15}
н/о н/о +7.7 +7.0 95 +2 +2 1016.5 1014.4 +7.0 0.1
07 19.05 Ю 11 н/о н/о +7.8 +7.4 97 +2 +2 1016.5 1014.4 0.4
08 19.05 ЮЗ 9 н/о н/о +6.8 +5.4 91 +1 +1 1017.3 1015.2 0.2
09 19.05 ЮЗ 10 15 км в посл. час ливневой дождь 9/1 300 м
[Cb calv Ac cuf]
+7.6 +4.9 83 +2 +2 1017.9 1015.8
11 19.05 ЮЗ 9 н/о н/о +7.9 +3.9 76 +3 +3 1019.3 1017.2
10 19.05 ЮЗ 9 н/о н/о +7.6 +3.7 76 +3 +3 1018.8 1016.7
12 19.05 З 8
{15}
15 км {ливн. осадки, дождь} 10/10 300 м
[St]
+7.6 +2.1 68 +3 +3 1019.8 1017.7 0.6
13 19.05 З 7 н/о н/о +7.9 +2.0 66 +4 +4 1020.2 1018.1
14 19.05 З 6 н/о н/о +7.5 +2.0 68 +3 +3 1020.6 1018.5
15 19.05 ЮЗ 5-7
{7}
30 км 8/0
[Ac As Cc]
+8.1 +2.2 66 +5 +6 1020.9 1018.8
17 19.05 ЮЗ 3-5
{7}
н/о н/о +8.1 +2.8 69 +6 +6 1020.5 1018.4
16 19.05 ЮЗ 5-6
{7}
н/о н/о +8.5 +3.0 68 +5 +5 1020.8 1018.7
18 19.05 Ю 4-5
{10}
20 км 9/1 300 м
[St Ac As Ci fib]
+7.5 +2.6 71 +4 +5 1019.9 1017.8 +6.4 +8.6
19 19.05 Ю 5-7
{7}
н/о н/о +7.2 +3.1 75 +3 +3 1019.5 1017.4
20 19.05 Ю 5-7
{8}
н/о н/о +7.1 +3.4 77 +3 +3 1019.4 1017.3
21 19.05 Ю 7-8
{8}
20 км 10/1 300 м
[St Ac As]
+7.3 +4.4 82 +3 +3 1018.6 1016.5
23 19.05 Ю 8-10
{10}
н/о н/о +8.0 +6.8 92 +3 +3 1017.6 1015.5
22 19.05 Ю 7-9
{9}
н/о н/о +7.6 +6.1 90 +3 +3 1018.2 1016.1
00 20.05 Ю 9-11
{14}
н/о н/о +8.1 +7.8 98 +3 +3 1016.9 1014.8
01 20.05 Ю 10-12
{12}
н/о н/о +8.5 +7.4 93 +3 +3 1016.2 1014.1
02 20.05 Ю 10-13
{14}
н/о н/о +8.7 +6.8 88 +4 +4 1016.2 1014.1
03 20.05 Ю 10-13
{14}
н/о н/о +9.3 +6.7 84 +5 +5 1015.1 1013.0
05 20.05 Ю 10-13
{16}
н/о н/о +10.7 +5.3 69 +7 +7 1014.2 1012.1
04 20.05 Ю 11-14
{15}
н/о н/о +9.7 +6.4 80 +5 +5 1014.6 1012.5
06 20.05 Ю 10-14
{16}
н/о н/о +11.0 +5.1 67 +7 +7 1013.9 1011.8 +7.0 +11.1
07 20.05 Ю 11-14
{16}
н/о н/о +11.7 +5.4 65 +8 +8 1013.3 1011.3
08 20.05 Ю 12-17
{17}
н/о н/о +11.9 +5.6 65 +8 +8 1013.0 1011.0
09 20.05 Ю 12-17
{17}
30 км 10/0
[Ac As]
+11.6 +5.9 68 +8 +8 1013.1 1011.1
11 20.05 ЮЗ 15-24
{24}
н/о н/о +11.9 +4.2 59 +8 +8 1013.5 1011.5
10 20.05 Ю 12-16
{17}
н/о н/о +11.7 +5.6 66 +8 +8 1013.2 1011.2
12 20.05 Ю 13-19
{24}
10 км слабый дождь 10/3 300 м
[Frnb As op]
+11.9 +3.7 57 +8 +8 1013.8 1011.8
13 20.05 Ю 14-21
{22}
н/о н/о +11.9 +4.2 59 +8 +8 1013.7 1011.7
14 20.05 Ю 14-18
{21}
н/о н/о +10.0 +6.2 77 +5 +5 1014.1 1012.0 0.2
15 20.05 Ю 11-15
{18}
10 км слабый дождь 10/3 300 м
[Frnb As op]
+9.6 +6.5 81 +5 +5 1014.6 1012.5
17 20.05 Ю 10-14
{17}
н/о н/о +8.5 +7.9 96 +3 +3 1014.4 1012.3 0.5
16 20.05 Ю 11-15
{17}
н/о н/о +8.8 +7.4 91 +4 +4 1014.6 1012.5 0.3
18 20.05 Ю 10-13
{22}
10 км слабый дождь 10/3 300 м
[Frnb As op]
+8.4 +7.8 96 +3 +3 1014.4 1012.3 +8.3 +12.3 2
19 20.05 Ю 11-17
{17}
н/о н/о +8.5 +8.1 97 +3 +3 1014.3 1012.2 2
20 20.05 Ю 12-15
{17}
н/о н/о +8.6 +7.9 95 +3 +3 1014.5 1012.4 2
21 20.05 Ю 12-15
{16}
10 км слабый дождь 10/3 300 м
[Frnb As op]
+8.6 +8.0 96 +3 +3 1014.4 1012.3 1
23 20.05 Ю 11-14
{14}
н/о н/о +8.5 +8.1 97 +3 +3 1014.5 1012.4 0.7
22 20.05 Ю 10-13
{16}
н/о н/о +8.7 +8.1 96 +4 +4 1014.4 1012.3 0.7
00 21.05 Ю 13-16
{17}
н/о н/о +8.5 +8.1 97 +3 +3 1014.6 1012.5 1
01 21.05 Ю 12-16
{17}
н/о н/о +8.5 +8.1 97 +3 +3 1015.2 1013.1 1
02 21.05 ЮЗ 10-15
{15}
н/о н/о +8.7 +8.1 96 +4 +4 1015.6 1013.5 1
03 21.05 Ю 10-14
{15}
н/о н/о +8.4 +8.0 97 +3 +3 1015.8 1013.7 0.6
05 21.05 Ю 11 н/о н/о +8.5 +8.1 97 +3 +3 1016.7 1014.6 0.4
04 21.05 Ю 10 н/о н/о +8.6 +8.2 97 +3 +3 1016.2 1014.1 1
06 21.05 ЮЗ 9
{17}
н/о н/о +8.7 +8.3 97 +4 +4 1017.5 1015.4 +8.3 12
07 21.05 ЮЗ 8 н/о н/о +8.5 +8.1 97 +4 +4 1018.3 1016.2 0.2
08 21.05 ЮЗ 9 н/о н/о +8.5 +8.1 97 +3 +3 1019.2 1017.1 0.1
09 21.05 ЮЗ 8 10 км слабый дождь 10/3 300 м
[Frnb As op]
+8.3 +8.0 98 +3 +4 1020.3 1018.2
11 21.05 ЮЗ 4 н/о н/о +8.6 +8.3 98 +5 +5 1022.0 1019.9
10 21.05 ЮЗ 5 н/о н/о +8.2 +7.9 98 +4 +4 1021.1 1019.0
12 21.05 ЮЗ 4-6
{14}
200 м туман {дождь} ?/? +8.4 +8.1 98 +5 +5 1022.3 1020.2
13 21.05 ЮЗ 5-6
{6}
н/о н/о +8.1 +7.8 98 +4 +4 1022.7 1020.6
14 21.05 ЮЗ 4-6
{6}
н/о н/о +8.2 +7.9 98 +5 +5 1023.2 1021.1 0.2
15 21.05 ЮЗ 4-6
{6}
10 км слабый дождь {туман} 10/3 300 м
[Frnb As op]
+8.3 +7.9 97 +5 +5 1023.3 1021.2 0.2
17 21.05 Ю 2-2
{4}
н/о н/о +7.8 +7.5 98 +6 +6 1022.5 1020.4
16 21.05 Ю 2-3
{5}
н/о н/о +8.0 +7.7 98 +6 +6 1022.7 1020.6
18 21.05 З 2-4
{6}
10 км слабый дождь {туман} 10/3 300 м
[Frnb As op]
+7.1 +6.7 97 +5 +5 1022.1 1020.0 +7.0 +8.7
19 21.05 С 2-3
{5}
н/о н/о +6.9 +4.4 84 +5 +5 1022.1 1020.0
20 21.05 С 2-2
{5}
н/о н/о +6.4 +4.6 88 +4 +4 1022.0 1019.9
21 21.05 С 3-3
{4}
15 км {дождь} 10/10 300 м
[Sc]
+6.6 +4.9 89 +3 +3 1021.9 1019.8
23 21.05 В 3-3
{3}
н/о н/о +6.9 +5.7 92 +4 +4 1021.8 1019.7
22 21.05 В 2-2
{3}
н/о н/о +6.7 +5.2 90 +4 +4 1022.1 1020.0
00 22.05 В 2-3
{5}
н/о н/о +7.3 +6.6 95 +5 +5 1021.4 1019.3
01 22.05 Ю 4-6
{6}
н/о н/о +8.3 +7.7 96 +5 +5 1021.0 1018.9
02 22.05 Ю 6-7
{7}
н/о н/о +8.3 +7.6 95 +4 +4 1020.9 1018.8
03 22.05 Ю 6-7
{8}
н/о н/о +8.1 +7.4 95 +4 +4 1020.7 1018.6
05 22.05 З 5 н/о н/о +7.3 +7.0 98 +3 +3 1021.5 1019.4
04 22.05 ЮЗ 5 н/о н/о +7.7 +7.4 98 +4 +4 1021.2 1019.1
06 22.05 СЗ 7
{8}
н/о н/о +6.5 +5.9 96 +1 +1 1022.0 1019.9 +6.3
07 22.05 СЗ 6-7
{10}
н/о н/о +6.4 +5.0 91 +2 +2 1023.0 1020.9
08 22.05 З 2-3
{7}
н/о н/о +6.9 +4.6 85 +5 +5 1023.6 1021.5
09 22.05 СЗ 5-6
{11}
10 км слабый дождь 10/3 300 м
[Frnb As op]
+6.3 +4.6 89 +2 +3 1024.1 1022.0 0.1
11 22.05 СЗ 2-3
{5}
н/о н/о +7.8 +4.0 77 +6 +6 1025.1 1023.0
10 22.05 СЗ 4-5
{6}
н/о н/о +7.1 +4.8 85 +4 +4 1024.6 1022.5
12 22.05 З 2-3
{11}
30 км {ливн. осадки, дождь} 4/1 300 м
[Cb calv Ac cuf Ci fib]
+8.7 +4.3 74 +7 +15 1025.6 1023.5
13 22.05 ЮЗ 3-5
{5}
н/о н/о +8.8 +3.2 68 +7 +7 1026.1 1024.0
14 22.05 З 5-6
{6}
н/о н/о +8.7 +4.5 75 +5 +5 1026.1 1024.0
15 22.05 З 4-5
{6}
40 км 4/1 300 м
[Cu med, cong Ac As Ci fib]
+9.0 +5.0 76 +6 +9 1026.4 1024.3
17 22.05 СЗ 5-6
{6}
н/о н/о +8.1 +4.5 78 +4 +4 1026.6 1024.5
16 22.05 З 5-6
{6}
н/о н/о +9.5 +5.3 75 +6 +6 1026.6 1024.5
18 22.05 СЗ 4-5
{6}
20 км 3/3 300 м
[Cu med, cong]
+8.4 +4.4 76 +5 +6 1026.7 1024.6 +5.9 +9.7
19 22.05 З 3-4
{6}
н/о н/о +7.5 +3.9 78 +5 +5 1026.8 1024.7
20 22.05 СЗ 4-5
{5}
н/о н/о +7.4 +3.8 78 +4 +4 1027.0 1024.9
21 22.05 С 5-6
{6}
20 км 6/1 300 м
[Cb calv Ac As]
+6.9 +3.7 80 +3 +3 1027.2 1025.1
23 22.05 С 4-5
{5}
н/о н/о +6.5 +3.0 78 +3 +3 1027.7 1025.6
22 22.05 СЗ 5-6
{6}
н/о н/о +6.7 +3.2 78 +3 +3 1027.4 1025.3
00 23.05 СЗ 5-6
{6}
н/о н/о +6.4 +1.5 71 +2 +2 1028.0 1025.9
01 23.05 СЗ 6-7
{7}
н/о н/о +6.2 +0.6 67 +2 +2 1028.3 1026.2
02 23.05 СЗ 4-5
{7}
н/о н/о +6.1 +0.5 67 +3 +3 1028.6 1026.5
03 23.05 СЗ 3-3
{5}
н/о н/о +6.5 +0.2 64 +4 +4 1028.8 1026.7
05 23.05 СЗ 2 н/о н/о +7.2 +0.4 62 +5 +5 1029.6 1027.5
04 23.05 С 2 н/о н/о +6.9 +0.1 62 +5 +5 1029.3 1027.2
06 23.05 С 2
{7}
н/о н/о +7.2 +0.2 61 +5 +5 1029.6 1027.5 +6.0
07 23.05 СЗ 1 н/о н/о +7.9 +0.2 58 +8 +8 1030.2 1028.1
08 23.05 СЗ 2 н/о н/о +7.5 -0.2 58 +6 +6 1030.5 1028.4
09 23.05 СЗ 2 40 км 4/1 300 м
[Cu hum Ac As]
+8.0 +0.7 60 +6 +13 1030.7 1028.6
11 23.05 СЗ 3-4
{5}
н/о н/о +8.2 +0.9 60 +6 +6 1031.0 1028.9
10 23.05 СЗ 3-4
{4}
н/о н/о +8.0 +0.3 58 +6 +6 1030.9 1028.8
12 23.05 СЗ 3-4
{5}
50 км 3/0
[Ac As]
+8.4 +1.6 62 +6 +13 1031.1 1029.0
13 23.05 С 4-5
{5}
н/о н/о +8.1 +1.9 65 +5 +5 1031.6 1029.5
14 23.05 -4
{5}
н/о н/о +8.1 +1.1 61 1031.5 1029.4
15 23.05 С 3-4
{4}
>70 км 1/0
[Ac As]
+8.0 +1.4 63 +6 +11 1031.5 1029.4
17 23.05 С 3-4
{5}
н/о н/о +7.3 +1.8 68 +5 +5 1031.3 1029.2
16 23.05 С 4-4
{5}
н/о н/о +7.8 +1.4 64 +5 +5 1031.4 1029.3
18 23.05 В 3-4
{5}
60 км 4/0
[Ac As Ci fib]
+7.3 +1.8 68 +5 +6 1030.6 1028.5 +6.8 +9.0
19 23.05 СВ 2-3
{4}
н/о н/о +7.1 +2.2 71 +5 +5 1030.8 1028.7
20 23.05 СВ 3-3
{4}
н/о н/о +6.8 +2.3 73 +4 +4 1030.6 1028.5
21 23.05 СВ 3-3
{4}
60 км 8/0
[Ac As]
+6.8 +2.3 73 +4 +4 1030.6 1028.5
23 23.05 СВ 2-2
{4}
н/о н/о +6.9 +3.0 76 +5 +5 1030.1 1028.0
22 23.05 В 2-3
{4}
н/о н/о +6.7 +2.2 73 +5 +5 1030.5 1028.4
00 24.05 СВ 2-2
{4}
н/о н/о +7.0 +3.6 79 +5 +5 1030.1 1028.0
01 24.05 В 2-2
{2}
н/о н/о +7.2 +4.2 81 +5 +5 1029.9 1027.8
02 24.05 ЮВ 3-3
{3}
н/о н/о +7.3 +4.1 80 +4 +4 1029.4 1027.3
03 24.05 ЮВ 2-2
{3}
н/о н/о +7.8 +5.3 84 +6 +6 1029.1 1027.0
05 24.05 ЮВ 1 н/о н/о +8.2 +4.6 78 +8 +8 1028.4 1026.3
04 24.05 ЮВ 1-1
{2}
н/о н/о +7.8 +5.4 85 +7 +7 1028.8 1026.7
06 24.05 В 2
{3}
н/о н/о +8.5 +6.0 84 +7 +7 1028.3 1026.2 +6.7
07 24.05 В 2 н/о н/о +8.4 +5.3 81 +7 +7 1028.0 1025.9
08 24.05 В 2 н/о н/о +9.1 +6.2 82 +7 +7 1027.9 1025.8
09 24.05 ЮВ 3 >70 км 6/0 2000 м
[Ac As Cc]
+10.5 +6.6 77 +9 +13 1027.5 1025.4
11 24.05 Ю 3-4
{4}
н/о н/о +13.9 +1.9 44 +13 +13 1027.2 1025.1
10 24.05 Ю 2 н/о н/о +13.7 +3.5 50 +13 +13 1027.5 1025.4
12 24.05 Ю 4-5
{5}
>70 км 6/0
[Ac As Cc]
+15.3 +6.7 56 +15 +19 1027.3 1025.2
13 24.05 СЗ 4-5
{5}
н/о н/о +11.7 +6.0 68 +10 +10 1027.3 1025.2
14 24.05 С 4-4
{6}
н/о н/о +10.5 +7.0 79 +8 +8 1026.8 1024.7
15 24.05 СВ 3-4
{4}
>70 км 5/0
[Ac As Cc]
+10.6 +5.8 72 +9 +12 1026.6 1024.5
17 24.05 В 2-2
{3}
н/о н/о +10.4 +4.8 68 +9 +9 1026.1 1024.0
16 24.05 СВ 3-4
{4}
н/о н/о +10.4 +6.0 74 +8 +8 1026.3 1024.2
18 24.05 ЮВ 2-3
{6}
>70 км 3/0
[Ac As Cc]
+10.7 +3.5 61 +10 +11 1025.7 1023.6 +8.3 +15.5
19 24.05 Ю 2-3
{3}
н/о н/о +10.8 +3.8 62 +10 +10 1025.6 1023.5
20 24.05 Ю 5-6
{6}
н/о н/о +10.0 +6.0 76 +7 +7 1025.4 1023.3
21 24.05 Ю 8-11
{11}
>70 км 4/0
[Ac As Cc]
+8.9 +8.0 94 +4 +4 1025.1 1023.0
23 24.05 ЮЗ 7-11
{14}
н/о н/о +8.8 +7.1 89 +5 +5 1025.7 1023.6
22 24.05 Ю 9-12
{13}
н/о н/о +8.5 +7.4 93 +4 +4 1025.4 1023.3
00 25.05 Ю 10-14
{14}
н/о н/о +8.6 +7.5 93 +3 +3 1025.1 1023.0
01 25.05 Ю 9-11
{13}
н/о н/о +8.3 +7.6 95 +3 +3 1025.4 1023.3
02 25.05 Ю 8-12
{12}
н/о н/о +8.5 +6.6 88 +4 +4 1025.4 1023.3
03 25.05 ЮЗ 8-12
{12}
н/о н/о +8.3 +6.6 89 +4 +4 1025.7 1023.6
05 25.05 Ю 10 н/о н/о +8.5 +7.0 90 +3 +3 1025.6 1023.5
04 25.05 Ю 8-11
{11}
н/о н/о +8.6 +7.2 91 +4 +4 1025.4 1023.3
06 25.05 Ю 9
{14}
н/о н/о +8.4 +7.5 94 +3 +3 1025.7 1023.6 +7.7
07 25.05 Ю 9 н/о н/о +9.3 +6.9 85 +5 +5 1026.0 1023.9
08 25.05 Ю 11 н/о н/о +9.6 +5.6 76 +5 +5 1026.0 1023.9
09 25.05 Ю 10 20 км 3/3 300 м
[St]
+9.6 +5.4 75 +5 +5 1026.0 1023.9
11 25.05 Ю 10-12
{15}
н/о н/о +9.5 +6.2 80 +5 +5 1025.9 1023.8
10 25.05 Ю 11 н/о н/о +9.6 +5.4 75 +5 +5 1026.1 1024.0
12 25.05 ЮЗ 10-15
{15}
20 км 3/3 300 м
[St]
+10.0 +6.4 78 +6 +6 1026.7 1024.6
13 25.05 ЮЗ 10-14
{17}
н/о н/о +8.5 +7.4 93 +3 +3 1027.4 1025.3
14 25.05 ЮЗ 8-12
{15}
н/о н/о +8.9 +7.5 91 +4 +4 1028.0 1025.9

 

Местоположение метеостанции Myken (Норвегия): широта 66.77 долгота 12.48 высота над уровнем моря 17 м.

В архиве по умолчанию представлена погода в Myken за последнюю неделю. Архивные данные за месяц целиком и за предыдущие месяцы, начиная с января 2011 года, Вы можете получить, выбрав интересующий диапазон дат из раскрывающегося списка и нажав кнопку "Ввод!".


*Определитесь, кто Вы:
робот инопланетянин человек

Внимание! Время в таблицах - всемирное. Для получения местного времени необходимо прибавить поправку, которая в Myken равна 1 ч.

Смотрите также архив погоды в соседних городах и на ближайших метеорологических станциях:

Погода в Solvaer III (Норвегия) (45 км)
Погода в Reipa (Норвегия) (53 км)
Погода в Rost Flyplass (Норвегия) (85 км)
Погода в Skamdal (Норвегия) (86 км)
Погода в Seljelia (Норвегия) (86 км)
Погода в Sandnessjoen Lufthavn (Норвегия) (90 км)
Погода в Mo i Rana Lufthavn (Норвегия) (93 км)
Погода в Helligvaer II (Норвегия) (93 км)
Погода в Vaeroy Heliport (Норвегия) (98 км)
Погода в Bodo VI (Норвегия) (99 км)

Пояснения к столбцам:

Ветер - указаны скорость ветра в м/с - средняя за 10 мин, порывы в срок и между сроками (в фигурных скобках) и направление, откуда дует ветер: С - северный, СВ - северо-восточный, В - восточный, ЮВ - юго-восточный, Ю - южный, ЮЗ - юго-западный, З - западный, СЗ - северо-западный.
Видимость - горизонтальная дальность видимости в метрах или километрах. При видимости от 1 до 10 км при отсутствии осадков обычно наблюдается дымка, при ухудшении видимости до 1 км и менее - туман. В сухую погоду видимость может ухудшаться дымом, пылью или мглою.
Явления - указаны атмосферные явления, наблюдавшиеся в срок или в последний час перед сроком; фигурными скобками обозначены явления, наблюдавшиеся между сроками (за 1-3 часа до срока); квадратными скобками обозначены град или гололедные отложения с указанием их диаметра в мм.
Облачность - указаны через наклонную черту общая и нижняя облачность в баллах и высота нижней границы облаков в метрах; квадратными скобками обозначены формы облаков: Ci - перистые, Cs - перисто-слоистые, Cc - перисто-кучевые, Ac - высококучевые, As - высокослоистые, Sc - слоисто-кучевые, Ns - слоисто-дождевые, Cu - кучевые, Cb - кучево-дождевые. Подробнее классификацию облаков см. в Атласе облаков (PDF).
T - Температура воздуха - температура, измеренная на высоте 2 м над землей.
Td - Температура точки росы - температура, при понижении до которой содержащийся в воздухе водяной пар достигнет насыщения.
f - Относительная влажность воздуха - влажноcть воздуха, измеренная на высоте 2 м над землей.
Te - Эффективная температура - температура, которую ощущает одетый по сезону человек в тени. Характеристика душности погоды. При расчете учитывается влияние влажности воздуха и скорости ветра на теплоощущения человека.
Tes - Эффективная температура на солнце - температура, которую ощущает человек, с поправкой на солнечный нагрев. Характеристика знойности погоды. Зависит от высоты солнца над горизонтом, облачности и скорости ветра. Ночью, в пасмурную погоду, а также при ветре 12 м/с и более поправка равна нулю.
P - Атмосферное давление - приведенное к уровню моря атмосферное давление.
Po - Атмосферное давление - измеренное на уровне метеостанции атмосферное давление.
Tmin - Минимальная температура - минимум температуры воздуха на высоте 2 м над землей.
Tmax - Максимальная температура - максимум температуры воздуха на высоте 2 м над землей.
R - Количество осадков - Количество выпавших осадков за период времени, мм. При наведении курсора мыши на число - период времени, за который выпало указанное количество осадков.
R24 - Количество осадков - Количество выпавших осадков за 24 часа, мм.
S - Снежный покров - Высота снежного покрова, см. При наведении курсора мыши на число - состояние снежного покрова и степень покрытия местности в баллах.